"Pseudo-MPEC" for C414VG2

Created 2020 Dec 4 16:07:04 UT using Find_Orb

Click here for an explanation of pseudo-MPECs

 
 Astrometry: 
     C414VG2  C2020 11 23.51663512 25 02.50 +25 56 11.3    ~BND7 21.65GVNEOCPG96
     C414VG2  C2020 11 23.52045512 25 03.01 +25 56 12.1    ~BND7 22.41GVNEOCPG96
     C414VG2  C2020 11 23.52379512 25 03.52 +25 56 11.1    ~BND7 21.39GVNEOCPG96
     C414VG2  C2020 11 23.52712612 25 04.04 +25 56 10.6    ~BND7 21.73GVNEOCPG96

Station data:
(G96) Mt. Lemmon Survey  (N32.442754 W110.788720)  US/Arizona.  Observers T.
   A. Pruyne, B. M. Africano, E. J. Christensen, G. A. Farneth, D. C. Fuls,
   A. R. Gibbs, A. D. Grauer, H. Gröller, J. A. Johnson, R. A. Kowalski, S.
   M. Larson, G. J. Leonard, D. Rankin, R. L. Seaman, F. C. Shelly. 1.5-m
   reflector + 10K CCD.

Orbital elements:  C414VG2
   Perihelion 2020 Sep 2.919026 +/- 92.7 TT = 22:03:23 (JD 2459095.419026)
Epoch 2020 Nov 24.0 TT = JDT 2459177.5   Earth MOID: 0.8636   AutoNEOCP
M  19.68136269 +/- 100              (J2000 ecliptic)
n   0.23977983 +/- 0.569            Peri.   26.26434 +/- 90
a   2.56602533 +/- 4.06             Node    83.72530 +/- 110
e   0.2899584 +/- 0.235             Incl.   31.74797 +/- 49
P   4.11                   H 17.9   G  0.15   U 12.4  SR
q 1.82198469 +/- 0.536    Q 3.31006597 +/- 44.6
From 4 observations 2020 Nov. 23 (15.1 min); mean residual 0".36
Residuals in arcseconds: 
201123 G96  .31+  .43-    201123 G96  .15-  .02-    
201123 G96  .40-  .70+    201123 G96  .25+  .24-    

Ephemerides (geocentric):
Date (UTC) HH   RA              Dec         delta   r     elong  mag " sig PA
---- -- -- --  -------------   -----------  ------ ------ -----  --- ---- ---
2020 12 04 16  12 51 55.021   +25 44 44.64  1.9467 1.9264  74.1 22.1  48d  20
2020 12 04 17  12 52 00.880   +25 44 43.52  1.9464 1.9265  74.1 22.1  48d  20
2020 12 04 18  12 52 06.738   +25 44 42.40  1.9461 1.9266  74.2 22.1  48d  20
2020 12 04 19  12 52 12.595   +25 44 41.29  1.9459 1.9267  74.2 22.1  48d  20
2020 12 04 20  12 52 18.451   +25 44 40.20  1.9456 1.9268  74.2 22.1  48d  20
2020 12 04 21  12 52 24.305   +25 44 39.12  1.9454 1.9269  74.2 22.1  48d  20
2020 12 04 22  12 52 30.157   +25 44 38.05  1.9451 1.9270  74.2 22.1  49d  20
2020 12 04 23  12 52 36.009   +25 44 36.99  1.9449 1.9270  74.3 22.1  49d  20
2020 12 05 00  12 52 41.859   +25 44 35.94  1.9446 1.9271  74.3 22.1  49d  20
2020 12 05 01  12 52 47.708   +25 44 34.91  1.9444 1.9272  74.3 22.1  49d  20
2020 12 05 02  12 52 53.555   +25 44 33.88  1.9441 1.9273  74.3 22.1  49d  20
2020 12 05 03  12 52 59.401   +25 44 32.87  1.9439 1.9274  74.3 22.1  49d  20
2020 12 05 04  12 53 05.246   +25 44 31.88  1.9436 1.9275  74.3 22.1  49d  20
2020 12 05 05  12 53 11.090   +25 44 30.89  1.9434 1.9276  74.4 22.1  49d  20
2020 12 05 06  12 53 16.932   +25 44 29.91  1.9431 1.9277  74.4 22.1  49d  20
2020 12 05 07  12 53 22.773   +25 44 28.95  1.9429 1.9278  74.4 22.1  49d  20
2020 12 05 08  12 53 28.612   +25 44 28.00  1.9426 1.9278  74.4 22.1  49d  20
2020 12 05 09  12 53 34.450   +25 44 27.06  1.9424 1.9279  74.4 22.1  49d  20
2020 12 05 10  12 53 40.287   +25 44 26.14  1.9421 1.9280  74.5 22.1  49d  20
2020 12 05 11  12 53 46.123   +25 44 25.22  1.9419 1.9281  74.5 22.1  49d  20
2020 12 05 12  12 53 51.957   +25 44 24.32  1.9416 1.9282  74.5 22.1  49d  20
2020 12 05 13  12 53 57.789   +25 44 23.43  1.9414 1.9283  74.5 22.1  49d  20
2020 12 05 14  12 54 03.621   +25 44 22.55  1.9411 1.9284  74.5 22.1  49d  20
2020 12 05 15  12 54 09.451   +25 44 21.69  1.9409 1.9285  74.6 22.1  50d  20
2020 12 05 16  12 54 15.280   +25 44 20.84  1.9406 1.9286  74.6 22.1  50d  20
2020 12 05 17  12 54 21.107   +25 44 19.99  1.9404 1.9286  74.6 22.1  50d  20
2020 12 05 18  12 54 26.933   +25 44 19.17  1.9401 1.9287  74.6 22.1  50d  20
2020 12 05 19  12 54 32.758   +25 44 18.35  1.9399 1.9288  74.6 22.1  50d  20
2020 12 05 20  12 54 38.581   +25 44 17.54  1.9396 1.9289  74.6 22.1  50d  20
2020 12 05 21  12 54 44.403   +25 44 16.75  1.9394 1.9290  74.7 22.1  50d  20
2020 12 05 22  12 54 50.224   +25 44 15.97  1.9391 1.9291  74.7 22.1  50d  20
2020 12 05 23  12 54 56.043   +25 44 15.20  1.9388 1.9292  74.7 22.1  50d  20
2020 12 06 00  12 55 01.861   +25 44 14.45  1.9386 1.9293  74.7 22.1  50d  20
2020 12 06 01  12 55 07.678   +25 44 13.70  1.9383 1.9294  74.7 22.1  50d  20
2020 12 06 02  12 55 13.493   +25 44 12.97  1.9381 1.9294  74.8 22.1  50d  20
2020 12 06 03  12 55 19.307   +25 44 12.25  1.9378 1.9295  74.8 22.1  50d  20
2020 12 06 04  12 55 25.119   +25 44 11.55  1.9376 1.9296  74.8 22.1  50d  20
2020 12 06 05  12 55 30.930   +25 44 10.85  1.9373 1.9297  74.8 22.1  50d  20
2020 12 06 06  12 55 36.740   +25 44 10.17  1.9371 1.9298  74.8 22.1  51d  20
2020 12 06 07  12 55 42.549   +25 44 09.50  1.9368 1.9299  74.8 22.1  51d  20
2020 12 06 08  12 55 48.356   +25 44 08.85  1.9366 1.9300  74.9 22.1  51d  20
2020 12 06 09  12 55 54.161   +25 44 08.20  1.9363 1.9301  74.9 22.1  51d  20
2020 12 06 10  12 55 59.966   +25 44 07.57  1.9361 1.9302  74.9 22.1  51d  20
2020 12 06 11  12 56 05.769   +25 44 06.95  1.9358 1.9302  74.9 22.1  51d  20
2020 12 06 12  12 56 11.570   +25 44 06.34  1.9356 1.9303  74.9 22.1  51d  20
2020 12 06 13  12 56 17.371   +25 44 05.75  1.9353 1.9304  75.0 22.1  51d  20
2020 12 06 14  12 56 23.170   +25 44 05.16  1.9351 1.9305  75.0 22.1  51d  20
2020 12 06 15  12 56 28.967   +25 44 04.59  1.9348 1.9306  75.0 22.1  51d  20